Regional Weather Roundup
Issued by NWS

Home | Current Version | Previous Version | Text Only | Print | Product List | Glossary Off
Versions: 1 2 3 4 5 6 7 8 9 10 11 12 13 14 15 16 17 18 19 20 21 22 23 24 25 26 27 28 29 30 31 32 33 34 35 36 37 38 39 40 41 42 43 44 45 46 47 48 49 50

000
ASUS45 KBOU 260007
RWRCO

WEATHER ROUNDUP FOR COLORADO
NATIONAL WEATHER SERVICE DENVER/BOULDER CO
500 PM MST SUN JAN 25 2015

NOTE: "FAIR" INDICATES FEW OR NO CLOUDS BELOW 12000 FEET WITH NO
SIGNIFICANT WEATHER AND/OR OBSTRUCTIONS TO VISIBILITY.

COZ001>005-013-030-031-260100-
...NORTHWEST COLORADO...

CITY           SKY/WX    TMP DP  RH WIND       PRES   REMARKS
CRAIG          CLEAR     35  27  72 CALM      30.36R
HAYDEN         CLEAR     36  25  64 S3        30.36S
MEEKER         PTCLDY    37  25  61 CALM      30.35R
MOUNT WERNER   NOT AVBL
STEAMBOAT SPGS CLEAR     37  26  66 CALM      30.37R
WALDEN         CLEAR     34  25  69 S6        30.34R WCI  29
$$

COZ006>008-011-260100-
...WEST CENTRAL VALLEYS...

CITY           SKY/WX    TMP DP  RH WIND       PRES   REMARKS
GRAND JUNCTION MOCLDY    44  24  45 CALM      30.33R
MONTROSE       PTCLDY    44  20  38 W5        30.35R
EAGLE          PTCLDY    46  27  46 CALM      30.35R
RIFLE          PTCLDY    44  25  47 W8        30.33R
DELTA          PTCLDY    47  19  34 W3        30.34S
NUCLA          PTCLDY    54  23  30 NW6       30.34S
$$

COZ017>023-064>068-260100-
...SOUTHWEST COLORADO...

CITY           SKY/WX    TMP DP  RH WIND       PRES   REMARKS
DURANGO        MOCLDY    47  24  40 E3        30.27S
CORTEZ         CLEAR     49  24  37 S10       30.25S
PAGOSA SPRINGS MOCLDY    40  22  48 CALM      30.29S
TELLURIDE      PTCLDY    40  22  48 W7        30.39S
WOLF CREEK PAS NOT AVBL
$$

COZ009-010-012-014-032>034-037-058>063-260100-
...CENTRAL COLORADO...

CITY           SKY/WX    TMP DP  RH WIND       PRES   REMARKS
ASPEN          PTCLDY    39  24  55 N3        30.35R
BUENA VISTA    PTCLDY    47  18  32 NW15G25   30.27R
COPPER MTN     CLOUDY    28  19  69 W18       30.44R WCI  16
BERTHOUD PASS  CLOUDY    19  12  73 NW25G31   30.41R WCI   2
COTTONWOOD PAS PTCLDY    45  10  24 N5        30.34R
GUNNISON       PTCLDY    19   9  63 CALM      30.40S
KREMMLING      PTCLDY    36  27  69 S3        30.37R
LEADVILLE      MOCLDY    33  18  53 NW14G24   30.35R WCI  23
MONARCH PASS   PTCLDY    27  19  74 SW21G32   30.51S WCI  13
SALIDA         PTCLDY    48  20  32 W15G21    30.33R
SUNLIGHT       PTCLDY    32  25  74 W8        30.45R WCI  25
WILKERSON PASS PTCLDY    32  12  43 N16G33    30.37R WCI  21
$$

COZ069>075-260100-
...SAN LUIS VALLEY/SANGRE DE CRISTO MOUNTAINS...

CITY           SKY/WX    TMP DP  RH WIND       PRES   REMARKS
ALAMOSA        PTCLDY    42  19  39 N6        30.29R
LA VETA PASS   NOT AVBL
SAGUACHE       MOCLDY    34  25  69 CALM      30.31S
$$

COZ035-036-038>040-260100-
...NORTHERN COLORADO FRONT RANGE...

CITY           SKY/WX    TMP DP  RH WIND       PRES   REMARKS
DENVER INTL AP PTCLDY    53  24  32 W8        30.13R
DMNS CITY PARK   N/A     56  20  25 NW3G10    30.13R
AURORA         PTCLDY    51  22  32 W7        30.15R
FRONT RANGE AP NOT AVBL
ERIE MUNI ARPT PTCLDY    55  22  28 SW6       30.13R
BOULDER MUN AP PTCLDY    55  23  28 W6        30.13R
CENTENNIAL     PTCLDY    52  22  30 NW8       30.15R
BROOMFIELD     PTCLDY    54  23  30 W14       30.14R
FORT COLLINS   CLEAR     54  27  35 SW6       30.13R
LONGMONT       CLEAR     58  22  24 CALM      30.14R
$$

COZ041-046-047-076>085-087-088-260100-
...PIKES PEAK/PALMER DIVIDE AND SOUTHERN FOOTHILLS...

CITY           SKY/WX    TMP DP  RH WIND       PRES   REMARKS
COLO. SPRINGS  MOCLDY    48  25  40 S7        30.20R
A. F. ACADEMY  PTCLDY    45  23  42 S5        30.20R
ELLICOTT       PTCLDY   N/A N/A N/A CALM      30.18R
FALCON         PTCLDY    42  26  53 W5        30.22R
FORT CARSON    PTCLDY    48  27  44 SW2       30.17R
LIMON          CLEAR     41  26  55 N5        30.15R
MONUMENT HILL  PTCLDY    39  25  56 NW6       30.20R
TRINIDAD       CLEAR     46  32  58 S8        30.17F
$$

COZ042>045-048>051-090-091-260100-
...NORTHEAST COLORADO...

CITY           SKY/WX    TMP DP  RH WIND       PRES   REMARKS
GREELEY ARPT   CLEAR     48  28  46 CALM      30.10S
AKRON          CLEAR     41  31  67 W8        30.11R
BURLINGTON     CLEAR     49  32  52 N7        30.13R
WRAY           PTCLDY    47  31  54 W7        30.10R
STERLING       CLEAR     48  34  57 NW8       30.09R
HOLYOKE        PTCLDY    50  32  50 N6        30.08S
FORT MORGAN    CLEAR     48  29  47 CALM      30.13R
$$

COZ086-089-092>099-260100-
...SOUTHEAST COLORADO...

CITY           SKY/WX    TMP DP  RH WIND       PRES   REMARKS
PUEBLO         CLEAR     53  28  38 SE7       30.14R
LA JUNTA       CLEAR     55  30  38 SE5       30.13S
LAMAR          CLEAR     51  31  46 W7        30.12R
SPRINGFIELD      N/A     49  29  46 N9        30.14S
$$


USA.gov is the U.S. government's official web portal to all federal, state and local government web resources and services.